Time,TemperatureF,DewpointF,PressureIn,WindDirection,WindDirectionDegrees,WindSpeedMPH,WindSpeedGustMPH,Humidity,HourlyPrecipIn,Conditions,Clouds,dailyrainin,SoftwareType,DateUTC
2013-08-09 00:04:00,53.3,42.2,29.96,SSW,213,7.0,13.0,66,0.00,CLR,,0.12,WeatherDisplay:10.37,2013-08-08 14:04:00,
2013-08-09 00:09:00,53.2,42.2,29.96,SSW,210,5.0,10.0,66,0.00,CLR,,0.12,WeatherDisplay:10.37,2013-08-08 14:09:00,
2013-08-09 00:14:00,53.2,42.2,29.96,SW,221,2.0,7.0,66,0.00,CLR,,0.12,WeatherDisplay:10.37,2013-08-08 14:14:00,
2013-08-09 00:24:00,52.9,41.8,29.96,SW,229,3.0,7.0,66,0.00,CLR,,0.12,WeatherDisplay:10.37,2013-08-08 14:24:00,
2013-08-09 00:29:00,52.7,42.1,29.97,SW,222,3.0,8.0,67,0.00,CLR,,0.12,WeatherDisplay:10.37,2013-08-08 14:29:00,
2013-08-09 00:39:00,52.7,42.0,29.97,SW,222,3.0,7.0,67,0.00,CLR,,0.12,WeatherDisplay:10.37,2013-08-08 14:39:00,
2013-08-09 00:44:00,52.5,41.9,29.97,SW,217,3.0,8.0,67,0.00,CLR,,0.12,WeatherDisplay:10.37,2013-08-08 14:44:00,
2013-08-09 00:49:00,52.6,41.9,29.97,SW,217,1.0,5.0,67,0.00,CLR,,0.12,WeatherDisplay:10.37,2013-08-08 14:49:00,
2013-08-09 00:54:00,52.5,41.9,29.97,SW,227,2.0,8.0,67,0.00,CLR,,0.12,WeatherDisplay:10.37,2013-08-08 14:54:00,
2013-08-09 00:59:00,52.5,41.9,29.97,SW,216,2.0,8.0,67,0.00,CLR,,0.12,WeatherDisplay:10.37,2013-08-08 14:59:00,
2013-08-09 01:04:00,52.6,41.9,29.97,SW,222,2.0,6.0,67,0.00,CLR,,0.12,WeatherDisplay:10.37,2013-08-08 15:04:00,
2013-08-09 01:09:00,52.7,42.0,29.97,SW,225,3.0,7.0,67,0.00,CLR,,0.12,WeatherDisplay:10.37,2013-08-08 15:09:00,
2013-08-09 01:14:00,52.6,42.0,29.97,SW,225,3.0,6.0,67,0.00,CLR,,0.12,WeatherDisplay:10.37,2013-08-08 15:14:00,
2013-08-09 01:19:00,52.7,42.0,29.97,SW,230,2.0,6.0,67,0.00,CLR,,0.12,WeatherDisplay:10.37,2013-08-08 15:19:00,
2013-08-09 01:24:00,52.7,42.0,29.98,SW,232,0.0,4.0,67,0.00,CLR,,0.12,WeatherDisplay:10.37,2013-08-08 15:24:00,
2013-08-09 01:29:00,52.7,42.0,29.98,SW,230,1.0,6.0,67,0.00,CLR,,0.12,WeatherDisplay:10.37,2013-08-08 15:29:00,
2013-08-09 01:34:00,52.7,42.0,29.98,SW,232,2.0,5.0,67,0.00,CLR,,0.12,WeatherDisplay:10.37,2013-08-08 15:34:00,
2013-08-09 01:39:00,52.5,41.9,29.98,WSW,237,1.0,2.0,67,0.00,CLR,,0.12,WeatherDisplay:10.37,2013-08-08 15:39:00,
2013-08-09 01:44:00,52.5,42.3,29.97,SW,235,0.0,4.0,68,0.00,CLR,,0.12,WeatherDisplay:10.37,2013-08-08 15:44:00,
2013-08-09 01:49:00,52.4,42.2,29.97,SW,235,0.0,3.0,68,0.00,CLR,,0.12,WeatherDisplay:10.37,2013-08-08 15:49:00,
2013-08-09 01:54:00,52.5,42.3,29.97,WSW,248,1.0,3.0,68,0.00,CLR,,0.12,WeatherDisplay:10.37,2013-08-08 15:54:00,
2013-08-09 01:59:00,52.5,42.3,29.97,West,263,0.0,2.0,68,0.00,CLR,,0.12,WeatherDisplay:10.37,2013-08-08 15:59:00,
2013-08-09 02:04:00,52.5,42.3,29.96,West,272,0.0,2.0,68,0.00,CLR,,0.12,WeatherDisplay:10.37,2013-08-08 16:04:00,
2013-08-09 02:09:00,52.5,42.3,29.96,West,260,1.0,4.0,68,0.00,CLR,,0.12,WeatherDisplay:10.37,2013-08-08 16:09:00,
2013-08-09 02:19:00,52.6,42.3,29.96,WNW,288,0.0,1.0,68,0.00,CLR,,0.12,WeatherDisplay:10.37,2013-08-08 16:19:00,
2013-08-09 02:24:00,52.5,42.3,29.96,NW,306,0.0,3.0,68,0.00,CLR,,0.12,WeatherDisplay:10.37,2013-08-08 16:24:00,
2013-08-09 02:29:00,52.5,42.3,29.96,NW,310,0.0,1.0,68,0.00,CLR,,0.12,WeatherDisplay:10.37,2013-08-08 16:29:00,
2013-08-09 02:34:00,52.5,42.3,29.96,NNW,331,0.0,1.0,68,0.00,CLR,,0.12,WeatherDisplay:10.37,2013-08-08 16:34:00,
2013-08-09 02:39:00,52.5,42.3,29.96,NW,305,0.0,1.0,68,0.00,CLR,,0.12,WeatherDisplay:10.37,2013-08-08 16:39:00,
2013-08-09 02:44:00,52.3,42.5,29.96,NW,323,0.0,1.0,69,0.00,CLR,,0.12,WeatherDisplay:10.37,2013-08-08 16:44:00,
2013-08-09 02:49:00,52.2,42.4,29.96,NNW,337,0.0,1.0,69,0.00,CLR,,0.12,WeatherDisplay:10.37,2013-08-08 16:49:00,
2013-08-09 02:54:00,52.2,42.3,29.96,West,281,0.0,2.0,69,0.00,CLR,,0.12,WeatherDisplay:10.37,2013-08-08 16:54:00,
2013-08-09 02:59:00,52.0,42.1,29.96,WSW,252,0.0,2.0,69,0.00,CLR,,0.12,WeatherDisplay:10.37,2013-08-08 16:59:00,
2013-08-09 03:04:00,51.8,41.9,29.96,West,261,1.0,3.0,69,0.00,CLR,,0.12,WeatherDisplay:10.37,2013-08-08 17:04:00,
2013-08-09 03:09:00,51.7,41.9,29.96,West,265,1.0,3.0,69,0.00,CLR,,0.12,WeatherDisplay:10.37,2013-08-08 17:09:00,
2013-08-09 03:14:00,51.6,41.8,29.96,West,265,0.0,5.0,69,0.00,CLR,,0.12,WeatherDisplay:10.37,2013-08-08 17:14:00,
2013-08-09 03:19:00,51.6,41.8,29.96,West,270,0.0,2.0,69,0.00,CLR,,0.12,WeatherDisplay:10.37,2013-08-08 17:19:00,
2013-08-09 03:24:00,51.6,41.8,29.96,WSW,249,0.0,2.0,69,0.00,CLR,,0.12,WeatherDisplay:10.37,2013-08-08 17:24:00,
2013-08-09 03:29:00,51.6,41.8,29.96,WSW,240,0.0,5.0,69,0.00,CLR,,0.12,WeatherDisplay:10.37,2013-08-08 17:29:00,
2013-08-09 03:34:00,51.6,41.8,29.96,SW,236,0.0,5.0,69,0.00,CLR,,0.12,WeatherDisplay:10.37,2013-08-08 17:34:00,
2013-08-09 03:39:00,51.6,41.8,29.96,SW,227,0.0,4.0,69,0.00,CLR,,0.12,WeatherDisplay:10.37,2013-08-08 17:39:00,
2013-08-09 03:44:00,51.6,41.8,29.96,SW,233,1.0,4.0,69,0.00,CLR,,0.12,WeatherDisplay:10.37,2013-08-08 17:44:00,
2013-08-09 03:49:00,51.6,41.8,29.96,WSW,250,1.0,3.0,69,0.00,CLR,,0.12,WeatherDisplay:10.37,2013-08-08 17:49:00,
2013-08-09 03:54:00,51.6,41.8,29.96,SW,230,2.0,5.0,69,0.00,CLR,,0.12,WeatherDisplay:10.37,2013-08-08 17:54:00,
2013-08-09 03:59:00,51.6,41.8,29.96,SSW,198,0.0,2.0,69,0.00,CLR,,0.12,WeatherDisplay:10.37,2013-08-08 17:59:00,
2013-08-09 04:04:00,51.4,41.6,29.96,SE,141,0.0,1.0,69,0.00,CLR,,0.12,WeatherDisplay:10.37,2013-08-08 18:04:00,
2013-08-09 04:09:00,51.1,41.3,29.96,NE,54,0.0,2.0,69,0.00,CLR,,0.12,WeatherDisplay:10.37,2013-08-08 18:09:00,
2013-08-09 04:14:00,50.9,41.5,29.96,North,1,1.0,2.0,70,0.00,CLR,,0.12,WeatherDisplay:10.37,2013-08-08 18:14:00,
2013-08-09 04:19:00,50.5,41.1,29.96,NNW,338,0.0,1.0,70,0.00,CLR,,0.12,WeatherDisplay:10.37,2013-08-08 18:19:00,
2013-08-09 04:24:00,50.5,41.5,29.96,NW,317,0.0,0.0,71,0.00,CLR,,0.12,WeatherDisplay:10.37,2013-08-08 18:24:00,
2013-08-09 04:29:00,50.4,41.3,29.96,NW,308,0.0,1.0,71,0.00,CLR,,0.12,WeatherDisplay:10.37,2013-08-08 18:29:00,
2013-08-09 04:34:00,50.4,41.3,29.96,North,4,0.0,2.0,71,0.00,CLR,,0.12,WeatherDisplay:10.37,2013-08-08 18:34:00,
2013-08-09 04:39:00,50.2,41.1,29.96,NNE,31,1.0,2.0,71,0.00,CLR,,0.12,WeatherDisplay:10.37,2013-08-08 18:39:00,
2013-08-09 04:49:00,49.6,40.6,29.97,North,5,1.0,2.0,71,0.00,CLR,,0.12,WeatherDisplay:10.37,2013-08-08 18:49:00,
2013-08-09 04:54:00,49.6,41.0,29.97,North,357,1.0,2.0,72,0.00,CLR,,0.12,WeatherDisplay:10.37,2013-08-08 18:54:00,
2013-08-09 04:59:00,49.3,40.6,29.97,West,259,1.0,2.0,72,0.00,CLR,,0.12,WeatherDisplay:10.37,2013-08-08 18:59:00,
2013-08-09 05:04:00,49.5,40.8,29.97,SW,223,0.0,1.0,72,0.00,CLR,,0.12,WeatherDisplay:10.37,2013-08-08 19:04:00,
2013-08-09 05:09:00,49.5,40.8,29.98,NW,316,0.0,2.0,72,0.00,CLR,,0.12,WeatherDisplay:10.37,2013-08-08 19:09:00,
2013-08-09 05:14:00,49.3,40.6,29.98,WNW,299,0.0,1.0,72,0.00,CLR,,0.12,WeatherDisplay:10.37,2013-08-08 19:14:00,
2013-08-09 05:19:00,49.3,40.6,29.99,NW,325,0.0,0.0,72,0.00,CLR,,0.12,WeatherDisplay:10.37,2013-08-08 19:19:00,
2013-08-09 05:24:00,49.3,40.6,29.99,NNW,337,0.0,2.0,72,0.00,CLR,,0.12,WeatherDisplay:10.37,2013-08-08 19:24:00,
2013-08-09 05:29:00,49.3,40.6,29.99,NNW,344,0.0,1.0,72,0.00,CLR,,0.12,WeatherDisplay:10.37,2013-08-08 19:29:00,
2013-08-09 05:34:00,49.3,40.6,29.99,NNW,346,1.0,2.0,72,0.00,CLR,,0.12,WeatherDisplay:10.37,2013-08-08 19:34:00,
2013-08-09 05:39:00,49.3,40.3,30.00,NNW,346,1.0,2.0,71,0.00,CLR,,0.12,WeatherDisplay:10.37,2013-08-08 19:39:00,
2013-08-09 05:44:00,49.3,40.6,30.00,NNW,331,0.0,1.0,72,0.00,CLR,,0.12,WeatherDisplay:10.37,2013-08-08 19:44:00,
2013-08-09 05:49:00,49.3,40.3,30.00,WNW,295,0.0,1.0,71,0.00,CLR,,0.12,WeatherDisplay:10.37,2013-08-08 19:49:00,
2013-08-09 05:54:00,49.3,40.3,30.00,NNW,328,0.0,1.0,71,0.00,CLR,,0.12,WeatherDisplay:10.37,2013-08-08 19:54:00,
2013-08-09 05:59:00,49.1,40.1,30.00,North,351,1.0,2.0,71,0.00,CLR,,0.12,WeatherDisplay:10.37,2013-08-08 19:59:00,
2013-08-09 06:04:00,48.9,39.9,30.00,North,4,1.0,2.0,71,0.00,CLR,,0.12,WeatherDisplay:10.37,2013-08-08 20:04:00,
2013-08-09 06:09:00,48.7,40.1,30.01,North,1,1.0,2.0,72,0.00,CLR,,0.12,WeatherDisplay:10.37,2013-08-08 20:09:00,
2013-08-09 06:14:00,48.7,40.1,30.01,North,351,1.0,2.0,72,0.00,CLR,,0.12,WeatherDisplay:10.37,2013-08-08 20:14:00,
2013-08-09 06:19:00,48.7,40.1,30.01,NNW,345,0.0,1.0,72,0.00,CLR,,0.12,WeatherDisplay:10.37,2013-08-08 20:19:00,
2013-08-09 06:24:00,48.7,40.1,30.01,NW,325,0.0,1.0,72,0.00,CLR,,0.12,WeatherDisplay:10.37,2013-08-08 20:24:00,
2013-08-09 06:29:00,48.7,39.8,30.02,NW,322,0.0,7.0,71,0.00,CLR,,0.12,WeatherDisplay:10.37,2013-08-08 20:29:00,
2013-08-09 06:34:00,48.7,39.8,30.02,NW,321,1.0,1.0,71,0.00,CLR,,0.12,WeatherDisplay:10.37,2013-08-08 20:34:00,
2013-08-09 06:39:00,48.7,39.8,30.02,NW,319,1.0,4.0,71,0.00,CLR,,0.12,WeatherDisplay:10.37,2013-08-08 20:39:00,
2013-08-09 06:44:00,48.8,39.8,30.03,NW,319,0.0,1.0,71,0.00,CLR,,0.12,WeatherDisplay:10.37,2013-08-08 20:44:00,
2013-08-09 06:49:00,48.9,39.9,30.03,NW,322,0.0,2.0,71,0.00,CLR,,0.12,WeatherDisplay:10.37,2013-08-08 20:49:00,
2013-08-09 06:54:00,48.7,39.8,30.03,NW,321,0.0,1.0,71,0.00,CLR,,0.12,WeatherDisplay:10.37,2013-08-08 20:54:00,
2013-08-09 06:59:00,48.8,40.2,30.03,NW,319,0.0,2.0,72,0.00,CLR,,0.12,WeatherDisplay:10.37,2013-08-08 20:59:00,
2013-08-09 07:04:00,48.6,39.9,30.03,NW,324,0.0,2.0,72,0.00,CLR,,0.12,WeatherDisplay:10.37,2013-08-08 21:04:00,
2013-08-09 07:09:00,48.6,39.9,30.03,NNW,328,2.0,4.0,72,0.00,CLR,,0.12,WeatherDisplay:10.37,2013-08-08 21:09:00,
2013-08-09 07:14:00,48.4,39.8,30.04,NNW,346,2.0,4.0,72,0.00,CLR,,0.12,WeatherDisplay:10.37,2013-08-08 21:14:00,
2013-08-09 07:19:00,48.4,40.1,30.04,North,350,1.0,3.0,73,0.00,CLR,,0.12,WeatherDisplay:10.37,2013-08-08 21:19:00,
2013-08-09 07:24:00,48.6,40.4,30.04,NNW,348,1.0,2.0,73,0.00,CLR,,0.12,WeatherDisplay:10.37,2013-08-08 21:24:00,
2013-08-09 07:29:00,48.7,40.5,30.04,NNW,342,0.0,2.0,73,0.00,CLR,,0.12,WeatherDisplay:10.37,2013-08-08 21:29:00,
2013-08-09 07:34:00,48.9,40.6,30.04,NNW,342,1.0,2.0,73,0.00,CLR,,0.12,WeatherDisplay:10.37,2013-08-08 21:34:00,
2013-08-09 07:49:00,49.5,40.8,30.04,NNW,346,0.0,2.0,72,0.00,CLR,,0.12,WeatherDisplay:10.37,2013-08-08 21:49:00,
2013-08-09 07:54:00,49.6,41.3,30.04,NW,313,1.0,3.0,73,0.00,CLR,,0.12,WeatherDisplay:10.37,2013-08-08 21:54:00,
2013-08-09 08:04:00,49.7,41.1,30.04,NNW,330,1.0,3.0,72,0.00,CLR,,0.12,WeatherDisplay:10.37,2013-08-08 22:04:00,
2013-08-09 08:09:00,50.2,41.5,30.04,NW,325,1.0,3.0,72,0.00,CLR,,0.12,WeatherDisplay:10.37,2013-08-08 22:09:00,
2013-08-09 08:14:00,50.4,41.7,30.04,NW,316,1.0,4.0,72,0.00,CLR,,0.12,WeatherDisplay:10.37,2013-08-08 22:14:00,
2013-08-09 08:19:00,50.5,41.8,30.04,NW,318,2.0,4.0,72,0.00,CLR,,0.12,WeatherDisplay:10.37,2013-08-08 22:19:00,
2013-08-09 08:24:00,50.6,41.9,30.04,NW,313,1.0,3.0,72,0.00,CLR,,0.12,WeatherDisplay:10.37,2013-08-08 22:24:00,
2013-08-09 08:29:00,50.7,42.0,30.05,NW,316,1.0,3.0,72,0.00,CLR,,0.12,WeatherDisplay:10.37,2013-08-08 22:29:00,
2013-08-09 08:44:00,51.2,42.1,30.05,WNW,300,0.0,3.0,71,0.00,CLR,,0.12,WeatherDisplay:10.37,2013-08-08 22:44:00,
2013-08-09 08:49:00,51.6,42.5,30.05,WNW,287,0.0,3.0,71,0.00,CLR,,0.12,WeatherDisplay:10.37,2013-08-08 22:49:00,
2013-08-09 08:54:00,51.6,42.2,30.05,SW,223,0.0,2.0,70,0.00,CLR,,0.12,WeatherDisplay:10.37,2013-08-08 22:54:00,
2013-08-09 08:59:00,51.8,42.3,30.06,SW,221,1.0,4.0,70,0.00,RA,,0.00,WeatherDisplay:10.37,2013-08-08 22:59:00,
2013-08-09 09:04:00,52.2,42.7,30.05,West,265,1.0,4.0,70,0.00,RA,,0.00,WeatherDisplay:10.37,2013-08-08 23:04:00,
2013-08-09 09:14:00,52.7,42.8,30.06,NW,305,2.0,8.0,69,0.00,CLR,,0.00,WeatherDisplay:10.37,2013-08-08 23:14:00,
2013-08-09 09:19:00,53.0,42.7,30.06,WNW,291,2.0,6.0,68,0.00,CLR,,0.00,WeatherDisplay:10.37,2013-08-08 23:19:00,
2013-08-09 09:24:00,53.2,42.9,30.06,West,278,3.0,6.0,68,0.00,CLR,,0.00,WeatherDisplay:10.37,2013-08-08 23:24:00,
2013-08-09 09:34:00,53.8,43.1,30.06,WNW,285,2.0,5.0,67,0.00,CLR,,0.00,WeatherDisplay:10.37,2013-08-08 23:34:00,
2013-08-09 09:44:00,54.1,42.6,30.06,NW,304,2.0,6.0,65,0.00,CLR,,0.00,WeatherDisplay:10.37,2013-08-08 23:44:00,
2013-08-09 09:49:00,54.3,42.8,30.06,WNW,297,3.0,6.0,65,0.00,CLR,,0.00,WeatherDisplay:10.37,2013-08-08 23:49:00,
2013-08-09 09:54:00,54.5,43.0,30.06,West,281,2.0,5.0,65,0.00,CLR,,0.00,WeatherDisplay:10.37,2013-08-08 23:54:00,
2013-08-09 09:59:00,54.9,43.3,30.06,WNW,286,2.0,5.0,65,0.00,CLR,,0.00,WeatherDisplay:10.37,2013-08-08 23:59:00,
2013-08-09 10:04:00,55.2,43.6,30.05,WSW,256,3.0,7.0,65,0.00,CLR,,0.00,WeatherDisplay:10.37,2013-08-09 00:04:00,
2013-08-09 10:14:00,55.6,43.6,30.05,WNW,286,1.0,5.0,64,0.00,CLR,,0.00,WeatherDisplay:10.37,2013-08-09 00:14:00,
2013-08-09 10:19:00,55.9,43.9,30.05,WNW,288,2.0,5.0,64,0.00,CLR,,0.00,WeatherDisplay:10.37,2013-08-09 00:19:00,
2013-08-09 10:24:00,56.1,44.1,30.05,West,276,2.0,5.0,64,0.00,CLR,,0.00,WeatherDisplay:10.37,2013-08-09 00:24:00,
2013-08-09 10:34:00,56.3,43.9,30.05,WNW,294,1.0,3.0,63,0.00,CLR,,0.00,WeatherDisplay:10.37,2013-08-09 00:34:00,
2013-08-09 10:39:00,56.5,44.0,30.05,WSW,256,2.0,6.0,63,0.00,CLR,,0.00,WeatherDisplay:10.37,2013-08-09 00:39:00,
2013-08-09 10:44:00,56.8,44.4,30.04,West,264,2.0,4.0,63,0.00,CLR,,0.00,WeatherDisplay:10.37,2013-08-09 00:44:00,
2013-08-09 10:54:00,57.0,44.1,30.03,West,278,1.0,6.0,62,0.00,CLR,,0.00,WeatherDisplay:10.37,2013-08-09 00:54:00,
2013-08-09 10:59:00,57.0,44.5,30.03,WNW,289,2.0,7.0,63,0.00,CLR,,0.00,WeatherDisplay:10.37,2013-08-09 00:59:00,
2013-08-09 11:04:00,57.4,44.9,30.03,WNW,292,2.0,6.0,63,0.00,CLR,,0.00,WeatherDisplay:10.37,2013-08-09 01:04:00,
2013-08-09 11:09:00,57.4,44.9,30.03,WNW,297,2.0,6.0,63,0.00,CLR,,0.00,WeatherDisplay:10.37,2013-08-09 01:09:00,
2013-08-09 11:14:00,57.6,45.1,30.03,NW,320,2.0,6.0,63,0.00,CLR,,0.00,WeatherDisplay:10.37,2013-08-09 01:14:00,
2013-08-09 11:19:00,57.7,45.2,30.02,NW,322,1.0,5.0,63,0.00,CLR,,0.00,WeatherDisplay:10.37,2013-08-09 01:19:00,
2013-08-09 11:29:00,58.3,45.7,30.01,NW,309,3.0,5.0,63,0.00,CLR,,0.00,WeatherDisplay:10.37,2013-08-09 01:29:00,
2013-08-09 11:34:00,58.6,45.7,30.00,NNW,338,2.0,5.0,62,0.00,CLR,,0.00,WeatherDisplay:10.37,2013-08-09 01:34:00,
2013-08-09 11:39:00,58.8,45.8,30.00,NNW,339,1.0,3.0,62,0.00,CLR,,0.00,WeatherDisplay:10.37,2013-08-09 01:39:00,
2013-08-09 11:44:00,58.8,45.4,30.00,West,275,2.0,11.0,61,0.00,CLR,,0.00,WeatherDisplay:10.37,2013-08-09 01:44:00,
2013-08-09 11:49:00,58.8,45.4,30.00,WNW,285,5.0,8.0,61,0.00,CLR,,0.00,WeatherDisplay:10.37,2013-08-09 01:49:00,
2013-08-09 11:59:00,59.2,45.3,29.99,WNW,302,2.0,5.0,60,0.00,CLR,,0.00,WeatherDisplay:10.37,2013-08-09 01:59:00,
2013-08-09 12:04:00,59.7,45.8,29.99,WNW,302,1.0,5.0,60,0.00,CLR,,0.00,WeatherDisplay:10.37,2013-08-09 02:04:00,
2013-08-09 12:09:00,59.9,46.0,29.99,NW,319,2.0,10.0,60,0.00,CLR,,0.00,WeatherDisplay:10.37,2013-08-09 02:09:00,
2013-08-09 12:14:00,60.4,45.6,29.98,NNW,329,2.0,10.0,58,0.00,CLR,,0.00,WeatherDisplay:10.37,2013-08-09 02:14:00,
2013-08-09 12:19:00,60.2,44.9,29.98,WNW,291,2.0,8.0,57,0.00,CLR,,0.00,WeatherDisplay:10.37,2013-08-09 02:19:00,
2013-08-09 12:24:00,59.9,45.1,29.98,West,265,1.0,6.0,58,0.00,CLR,,0.00,WeatherDisplay:10.37,2013-08-09 02:24:00,
2013-08-09 12:34:00,59.8,45.0,29.97,West,279,2.0,4.0,58,0.00,CLR,,0.00,WeatherDisplay:10.37,2013-08-09 02:34:00,
2013-08-09 12:39:00,60.1,44.8,29.97,West,263,5.0,10.0,57,0.00,CLR,,0.00,WeatherDisplay:10.37,2013-08-09 02:39:00,
2013-08-09 12:44:00,60.1,44.8,29.97,WSW,256,1.0,7.0,57,0.00,CLR,,0.00,WeatherDisplay:10.37,2013-08-09 02:44:00,
2013-08-09 12:49:00,60.3,45.0,29.97,NW,311,5.0,6.0,57,0.00,CLR,,0.00,WeatherDisplay:10.37,2013-08-09 02:49:00,
2013-08-09 13:04:00,60.4,44.7,29.96,West,260,2.0,5.0,56,0.00,CLR,,0.00,WeatherDisplay:10.37,2013-08-09 03:04:00,
2013-08-09 13:09:00,60.4,45.1,29.96,SW,234,3.0,8.0,57,0.00,CLR,,0.00,WeatherDisplay:10.37,2013-08-09 03:09:00,
2013-08-09 13:19:00,60.7,44.9,29.96,West,275,3.0,8.0,56,0.00,CLR,,0.00,WeatherDisplay:10.37,2013-08-09 03:19:00,
2013-08-09 13:24:00,61.0,44.7,29.96,NW,309,3.0,7.0,55,0.00,CLR,,0.00,WeatherDisplay:10.37,2013-08-09 03:24:00,
2013-08-09 13:29:00,61.1,44.8,29.95,NW,309,2.0,7.0,55,0.00,CLR,,0.00,WeatherDisplay:10.37,2013-08-09 03:29:00,
2013-08-09 13:34:00,61.2,44.9,29.95,NW,318,6.0,10.0,55,0.00,CLR,,0.00,WeatherDisplay:10.37,2013-08-09 03:34:00,
2013-08-09 13:39:00,61.2,44.4,29.95,NW,305,2.0,6.0,54,0.00,CLR,,0.00,WeatherDisplay:10.37,2013-08-09 03:39:00,
2013-08-09 13:44:00,61.3,44.5,29.95,NW,304,2.0,6.0,54,0.00,CLR,,0.00,WeatherDisplay:10.37,2013-08-09 03:44:00,
2013-08-09 13:49:00,61.4,44.6,29.95,NW,307,3.0,10.0,54,0.00,CLR,,0.00,WeatherDisplay:10.37,2013-08-09 03:49:00,
2013-08-09 13:54:00,61.5,44.7,29.95,NW,308,6.0,9.0,54,0.00,CLR,,0.00,WeatherDisplay:10.37,2013-08-09 03:54:00,
2013-08-09 13:59:00,61.6,44.3,29.95,NW,314,1.0,9.0,53,0.00,CLR,,0.00,WeatherDisplay:10.37,2013-08-09 03:59:00,
2013-08-09 14:04:00,61.7,44.4,29.95,NW,310,6.0,8.0,53,0.00,CLR,,0.00,WeatherDisplay:10.37,2013-08-09 04:04:00,
2013-08-09 14:09:00,61.9,44.1,29.95,NW,319,2.0,9.0,52,0.00,CLR,,0.00,WeatherDisplay:10.37,2013-08-09 04:09:00,
2013-08-09 14:14:00,61.7,43.4,29.95,NW,322,2.0,7.0,51,0.00,CLR,,0.00,WeatherDisplay:10.37,2013-08-09 04:14:00,
2013-08-09 14:19:00,61.5,43.2,29.95,NW,314,0.0,6.0,51,0.00,CLR,,0.00,WeatherDisplay:10.37,2013-08-09 04:19:00,
2013-08-09 14:24:00,61.5,43.7,29.95,West,278,2.0,9.0,52,0.00,CLR,,0.00,WeatherDisplay:10.37,2013-08-09 04:24:00,
2013-08-09 14:29:00,61.5,43.7,29.95,WNW,293,2.0,10.0,52,0.00,CLR,,0.00,WeatherDisplay:10.37,2013-08-09 04:29:00,
2013-08-09 14:34:00,61.3,43.6,29.94,WNW,299,5.0,7.0,52,0.00,CLR,,0.00,WeatherDisplay:10.37,2013-08-09 04:34:00,
2013-08-09 14:39:00,61.4,43.6,29.94,NW,319,2.0,5.0,52,0.00,CLR,,0.00,WeatherDisplay:10.37,2013-08-09 04:39:00,
2013-08-09 14:44:00,61.3,43.6,29.94,NW,323,2.0,8.0,52,0.00,CLR,,0.00,WeatherDisplay:10.37,2013-08-09 04:44:00,
2013-08-09 14:49:00,61.3,43.6,29.94,WNW,290,3.0,6.0,52,0.00,CLR,,0.00,WeatherDisplay:10.37,2013-08-09 04:49:00,
2013-08-09 14:54:00,61.3,43.6,29.93,West,281,2.0,5.0,52,0.00,CLR,,0.00,WeatherDisplay:10.37,2013-08-09 04:54:00,
2013-08-09 14:59:00,61.3,44.1,29.94,WNW,289,2.0,4.0,53,0.00,CLR,,0.00,WeatherDisplay:10.37,2013-08-09 04:59:00,
2013-08-09 15:04:00,61.3,44.1,29.93,WNW,285,2.0,5.0,53,0.00,CLR,,0.00,WeatherDisplay:10.37,2013-08-09 05:04:00,
2013-08-09 15:09:00,61.3,44.1,29.93,NW,306,2.0,4.0,53,0.00,CLR,,0.00,WeatherDisplay:10.37,2013-08-09 05:09:00,
2013-08-09 15:14:00,61.7,44.4,29.93,WNW,302,5.0,7.0,53,0.00,CLR,,0.00,WeatherDisplay:10.37,2013-08-09 05:14:00,
2013-08-09 15:19:00,62.2,44.8,29.93,West,276,2.0,4.0,53,0.00,CLR,,0.00,WeatherDisplay:10.37,2013-08-09 05:19:00,
2013-08-09 15:24:00,62.1,44.3,29.93,WNW,286,2.0,7.0,52,0.00,CLR,,0.00,WeatherDisplay:10.37,2013-08-09 05:24:00,
2013-08-09 15:29:00,61.9,44.1,29.93,WNW,292,1.0,4.0,52,0.00,CLR,,0.00,WeatherDisplay:10.37,2013-08-09 05:29:00,
2013-08-09 15:34:00,61.8,44.0,29.93,West,270,0.0,5.0,52,0.00,CLR,,0.00,WeatherDisplay:10.37,2013-08-09 05:34:00,
2013-08-09 15:39:00,61.9,44.1,29.93,West,272,1.0,3.0,52,0.00,CLR,,0.00,WeatherDisplay:10.37,2013-08-09 05:39:00,
2013-08-09 15:44:00,62.2,44.4,29.93,NW,306,1.0,7.0,52,0.00,CLR,,0.00,WeatherDisplay:10.37,2013-08-09 05:44:00,
2013-08-09 15:49:00,62.4,44.6,29.93,NW,305,1.0,3.0,52,0.00,CLR,,0.00,WeatherDisplay:10.37,2013-08-09 05:49:00,
2013-08-09 15:54:00,62.4,44.6,29.93,NW,316,0.0,4.0,52,0.00,CLR,,0.00,WeatherDisplay:10.37,2013-08-09 05:54:00,
2013-08-09 15:59:00,62.2,44.4,29.93,NW,317,2.0,5.0,52,0.00,CLR,,0.00,WeatherDisplay:10.37,2013-08-09 05:59:00,
2013-08-09 16:04:00,62.2,43.9,29.93,NW,308,1.0,6.0,51,0.00,CLR,,0.00,WeatherDisplay:10.37,2013-08-09 06:04:00,
2013-08-09 16:09:00,61.9,44.1,29.93,NW,309,2.0,5.0,52,0.00,CLR,,0.00,WeatherDisplay:10.37,2013-08-09 06:09:00,
2013-08-09 16:14:00,61.8,43.9,29.93,NW,305,2.0,5.0,52,0.00,CLR,,0.00,WeatherDisplay:10.37,2013-08-09 06:14:00,
2013-08-09 16:19:00,61.5,43.7,29.93,NW,316,2.0,5.0,52,0.00,CLR,,0.00,WeatherDisplay:10.37,2013-08-09 06:19:00,
2013-08-09 16:24:00,61.5,43.7,29.93,NNW,329,1.0,7.0,52,0.00,CLR,,0.00,WeatherDisplay:10.37,2013-08-09 06:24:00,
2013-08-09 16:29:00,61.3,43.6,29.93,NNW,331,2.0,5.0,52,0.00,CLR,,0.00,WeatherDisplay:10.37,2013-08-09 06:29:00,
2013-08-09 16:34:00,61.3,44.0,29.93,NNW,332,1.0,3.0,53,0.00,CLR,,0.00,WeatherDisplay:10.37,2013-08-09 06:34:00,
2013-08-09 16:39:00,61.2,43.9,29.93,NW,326,0.0,5.0,53,0.00,CLR,,0.00,WeatherDisplay:10.37,2013-08-09 06:39:00,
2013-08-09 16:44:00,61.0,43.7,29.93,NW,318,0.0,3.0,53,0.00,CLR,,0.00,WeatherDisplay:10.37,2013-08-09 06:44:00,
2013-08-09 16:49:00,61.0,43.7,29.93,NNW,335,0.0,3.0,53,0.00,CLR,,0.00,WeatherDisplay:10.37,2013-08-09 06:49:00,
2013-08-09 16:54:00,60.8,44.0,29.93,NNW,335,2.0,5.0,54,0.00,CLR,,0.00,WeatherDisplay:10.37,2013-08-09 06:54:00,
2013-08-09 16:59:00,60.6,43.9,29.92,NNW,344,1.0,3.0,54,0.00,CLR,,0.00,WeatherDisplay:10.37,2013-08-09 06:59:00,
2013-08-09 17:04:00,60.6,43.9,29.92,North,0,1.0,2.0,54,0.00,CLR,,0.00,WeatherDisplay:10.37,2013-08-09 07:04:00,
2013-08-09 17:09:00,60.5,44.3,29.92,NNW,339,0.0,2.0,55,0.00,CLR,,0.00,WeatherDisplay:10.37,2013-08-09 07:09:00,
2013-08-09 17:14:00,60.4,43.7,29.92,NNW,347,0.0,1.0,54,0.00,CLR,,0.00,WeatherDisplay:10.37,2013-08-09 07:14:00,
2013-08-09 17:19:00,60.4,44.2,29.91,NNE,23,0.0,2.0,55,0.00,CLR,,0.00,WeatherDisplay:10.37,2013-08-09 07:19:00,
2013-08-09 17:24:00,60.4,44.7,29.91,NE,53,0.0,0.0,56,0.00,CLR,,0.00,WeatherDisplay:10.37,2013-08-09 07:24:00,
2013-08-09 17:29:00,60.1,44.3,29.91,NE,55,1.0,4.0,56,0.00,CLR,,0.00,WeatherDisplay:10.37,2013-08-09 07:29:00,
2013-08-09 17:34:00,60.1,44.8,29.92,ENE,73,0.0,1.0,57,0.00,CLR,,0.00,WeatherDisplay:10.37,2013-08-09 07:34:00,
2013-08-09 17:39:00,59.9,44.2,29.92,NNE,25,1.0,5.0,56,0.00,CLR,,0.00,WeatherDisplay:10.37,2013-08-09 07:39:00,
2013-08-09 17:44:00,59.9,44.2,29.92,NNE,15,1.0,2.0,56,0.00,CLR,,0.00,WeatherDisplay:10.37,2013-08-09 07:44:00,
2013-08-09 17:49:00,60.1,44.3,29.92,NNE,32,0.0,2.0,56,0.00,CLR,,0.00,WeatherDisplay:10.37,2013-08-09 07:49:00,
2013-08-09 17:54:00,59.9,44.2,29.92,NE,45,0.0,2.0,56,0.00,CLR,,0.00,WeatherDisplay:10.37,2013-08-09 07:54:00,
2013-08-09 17:59:00,59.8,44.1,29.92,NW,311,2.0,5.0,56,0.00,CLR,,0.00,WeatherDisplay:10.37,2013-08-09 07:59:00,
2013-08-09 18:04:00,59.9,43.7,29.92,NW,304,2.0,7.0,55,0.00,CLR,,0.00,WeatherDisplay:10.37,2013-08-09 08:04:00,
2013-08-09 18:09:00,60.1,42.9,29.92,NW,304,1.0,7.0,53,0.00,CLR,,0.00,WeatherDisplay:10.37,2013-08-09 08:09:00,
2013-08-09 18:14:00,60.3,43.1,29.92,NW,309,1.0,7.0,53,0.00,CLR,,0.00,WeatherDisplay:10.37,2013-08-09 08:14:00,
2013-08-09 18:19:00,60.4,43.2,29.92,NW,309,2.0,7.0,53,0.00,CLR,,0.00,WeatherDisplay:10.37,2013-08-09 08:19:00,
2013-08-09 18:24:00,60.4,42.7,29.92,WNW,301,1.0,6.0,52,0.00,CLR,,0.00,WeatherDisplay:10.37,2013-08-09 08:24:00,
2013-08-09 18:29:00,60.4,42.7,29.93,WNW,298,1.0,6.0,52,0.00,CLR,,0.00,WeatherDisplay:10.37,2013-08-09 08:29:00,
2013-08-09 18:34:00,60.3,42.6,29.93,WNW,293,0.0,3.0,52,0.00,CLR,,0.00,WeatherDisplay:10.37,2013-08-09 08:34:00,
2013-08-09 18:39:00,60.1,42.4,29.94,West,271,2.0,5.0,52,0.00,CLR,,0.00,WeatherDisplay:10.37,2013-08-09 08:39:00,
2013-08-09 18:44:00,60.1,42.4,29.93,West,273,2.0,7.0,52,0.00,CLR,,0.00,WeatherDisplay:10.37,2013-08-09 08:44:00,
2013-08-09 18:49:00,60.1,42.4,29.93,West,280,2.0,4.0,52,0.00,CLR,,0.00,WeatherDisplay:10.37,2013-08-09 08:49:00,
2013-08-09 18:54:00,60.1,41.9,29.93,WNW,296,2.0,5.0,51,0.00,CLR,,0.00,WeatherDisplay:10.37,2013-08-09 08:54:00,
2013-08-09 18:59:00,60.1,41.9,29.93,WNW,300,1.0,5.0,51,0.00,CLR,,0.00,WeatherDisplay:10.37,2013-08-09 08:59:00,
2013-08-09 19:04:00,60.1,41.9,29.93,WNW,288,2.0,7.0,51,0.00,CLR,,0.00,WeatherDisplay:10.37,2013-08-09 09:04:00,
2013-08-09 19:09:00,60.1,41.9,29.93,WNW,287,2.0,6.0,51,0.00,CLR,,0.00,WeatherDisplay:10.37,2013-08-09 09:09:00,
2013-08-09 19:14:00,59.9,42.2,29.93,West,279,1.0,6.0,52,0.00,CLR,,0.00,WeatherDisplay:10.37,2013-08-09 09:14:00,
2013-08-09 19:19:00,59.8,42.1,29.93,WNW,293,1.0,4.0,52,0.00,CLR,,0.00,WeatherDisplay:10.37,2013-08-09 09:19:00,
2013-08-09 19:24:00,59.7,42.1,29.93,NW,312,1.0,6.0,52,0.00,CLR,,0.00,WeatherDisplay:10.37,2013-08-09 09:24:00,
2013-08-09 19:29:00,59.7,42.1,29.93,NW,314,2.0,5.0,52,0.00,CLR,,0.00,WeatherDisplay:10.37,2013-08-09 09:29:00,
2013-08-09 19:34:00,59.5,41.9,29.93,NW,324,3.0,9.0,52,0.00,CLR,,0.00,WeatherDisplay:10.37,2013-08-09 09:34:00,
2013-08-09 19:39:00,59.6,42.0,29.93,NW,315,5.0,6.0,52,0.00,CLR,,0.00,WeatherDisplay:10.37,2013-08-09 09:39:00,
2013-08-09 19:44:00,59.5,41.9,29.93,NW,308,5.0,8.0,52,0.00,CLR,,0.00,WeatherDisplay:10.37,2013-08-09 09:44:00,
2013-08-09 19:49:00,59.5,41.4,29.93,NW,315,2.0,6.0,51,0.00,CLR,,0.00,WeatherDisplay:10.37,2013-08-09 09:49:00,
2013-08-09 19:54:00,59.5,41.4,29.93,NW,318,3.0,8.0,51,0.00,CLR,,0.00,WeatherDisplay:10.37,2013-08-09 09:54:00,
2013-08-09 19:59:00,59.5,41.4,29.93,NW,309,3.0,9.0,51,0.00,CLR,,0.00,WeatherDisplay:10.37,2013-08-09 09:59:00,
2013-08-09 20:04:00,59.5,41.4,29.93,WNW,286,5.0,10.0,51,0.00,CLR,,0.00,WeatherDisplay:10.37,2013-08-09 10:04:00,
2013-08-09 20:09:00,59.5,41.4,29.93,West,280,2.0,5.0,51,0.00,CLR,,0.00,WeatherDisplay:10.37,2013-08-09 10:09:00,
2013-08-09 20:14:00,59.5,41.4,29.93,West,260,2.0,5.0,51,0.00,CLR,,0.00,WeatherDisplay:10.37,2013-08-09 10:14:00,
2013-08-09 20:19:00,59.5,41.4,29.93,West,277,2.0,4.0,51,0.00,CLR,,0.00,WeatherDisplay:10.37,2013-08-09 10:19:00,
2013-08-09 20:24:00,59.5,41.4,29.93,NW,313,3.0,7.0,51,0.00,CLR,,0.00,WeatherDisplay:10.37,2013-08-09 10:24:00,
2013-08-09 20:29:00,59.5,40.9,29.93,NW,312,5.0,8.0,50,0.00,CLR,,0.00,WeatherDisplay:10.37,2013-08-09 10:29:00,
2013-08-09 20:34:00,59.5,40.9,29.92,NW,313,1.0,6.0,50,0.00,CLR,,0.00,WeatherDisplay:10.37,2013-08-09 10:34:00,
2013-08-09 20:39:00,59.5,40.9,29.92,NW,307,2.0,6.0,50,0.00,CLR,,0.00,WeatherDisplay:10.37,2013-08-09 10:39:00,
2013-08-09 20:44:00,59.5,40.9,29.93,NW,310,5.0,9.0,50,0.00,CLR,,0.00,WeatherDisplay:10.37,2013-08-09 10:44:00,
2013-08-09 20:49:00,59.5,40.9,29.93,NW,314,3.0,10.0,50,0.00,CLR,,0.00,WeatherDisplay:10.37,2013-08-09 10:49:00,
2013-08-09 20:54:00,59.4,41.2,29.93,NW,305,5.0,10.0,51,0.00,CLR,,0.00,WeatherDisplay:10.37,2013-08-09 10:54:00,
2013-08-09 20:59:00,59.4,41.2,29.93,NW,309,3.0,8.0,51,0.00,CLR,,0.00,WeatherDisplay:10.37,2013-08-09 10:59:00,
2013-08-09 21:04:00,59.4,41.2,29.93,WNW,292,5.0,13.0,51,0.00,CLR,,0.00,WeatherDisplay:10.37,2013-08-09 11:04:00,
2013-08-09 21:09:00,59.4,41.2,29.93,WNW,302,3.0,8.0,51,0.00,CLR,,0.00,WeatherDisplay:10.37,2013-08-09 11:09:00,
2013-08-09 21:14:00,59.4,41.2,29.93,NW,313,3.0,8.0,51,0.00,CLR,,0.00,WeatherDisplay:10.37,2013-08-09 11:14:00,
2013-08-09 21:19:00,59.2,41.1,29.92,NW,305,2.0,8.0,51,0.00,CLR,,0.00,WeatherDisplay:10.37,2013-08-09 11:19:00,
2013-08-09 21:24:00,59.2,41.1,29.93,WNW,298,2.0,7.0,51,0.00,CLR,,0.00,WeatherDisplay:10.37,2013-08-09 11:24:00,
2013-08-09 21:34:00,59.0,40.9,29.93,NW,308,2.0,7.0,51,0.00,CLR,,0.00,WeatherDisplay:10.37,2013-08-09 11:34:00,
2013-08-09 21:39:00,58.8,40.7,29.93,NW,314,1.0,6.0,51,0.00,CLR,,0.00,WeatherDisplay:10.37,2013-08-09 11:39:00,
2013-08-09 21:44:00,58.8,40.7,29.94,WNW,299,2.0,5.0,51,0.00,CLR,,0.00,WeatherDisplay:10.37,2013-08-09 11:44:00,
2013-08-09 21:49:00,58.8,40.7,29.94,WNW,292,2.0,7.0,51,0.00,CLR,,0.00,WeatherDisplay:10.37,2013-08-09 11:49:00,
2013-08-09 21:54:00,58.8,40.7,29.93,WNW,302,2.0,6.0,51,0.00,CLR,,0.00,WeatherDisplay:10.37,2013-08-09 11:54:00,
2013-08-09 21:59:00,58.8,41.2,29.93,NW,305,5.0,9.0,52,0.00,CLR,,0.00,WeatherDisplay:10.37,2013-08-09 11:59:00,
2013-08-09 22:04:00,58.6,41.1,29.93,WNW,299,1.0,7.0,52,0.00,CLR,,0.00,WeatherDisplay:10.37,2013-08-09 12:04:00,
2013-08-09 22:09:00,58.6,41.1,29.93,WNW,302,1.0,2.0,52,0.00,CLR,,0.00,WeatherDisplay:10.37,2013-08-09 12:09:00,
2013-08-09 22:14:00,58.4,41.3,29.93,WNW,285,3.0,6.0,53,0.00,CLR,,0.00,WeatherDisplay:10.37,2013-08-09 12:14:00,
2013-08-09 22:19:00,58.3,41.2,29.93,NW,306,2.0,7.0,53,0.00,CLR,,0.00,WeatherDisplay:10.37,2013-08-09 12:19:00,
2013-08-09 22:24:00,58.1,41.0,29.93,NW,310,2.0,8.0,53,0.00,CLR,,0.00,WeatherDisplay:10.37,2013-08-09 12:24:00,
2013-08-09 22:29:00,58.2,41.1,29.93,WNW,293,2.0,8.0,53,0.00,CLR,,0.00,WeatherDisplay:10.37,2013-08-09 12:29:00,
2013-08-09 22:34:00,58.3,41.2,29.93,WNW,302,6.0,11.0,53,0.00,CLR,,0.00,WeatherDisplay:10.37,2013-08-09 12:34:00,
2013-08-09 22:39:00,58.3,41.2,29.93,NW,308,2.0,11.0,53,0.00,CLR,,0.00,WeatherDisplay:10.37,2013-08-09 12:39:00,
2013-08-09 22:44:00,58.1,41.0,29.92,NW,312,7.0,14.0,53,0.00,CLR,,0.00,WeatherDisplay:10.37,2013-08-09 12:44:00,
2013-08-09 22:49:00,58.2,41.2,29.93,NW,308,2.0,14.0,53,0.00,CLR,,0.00,WeatherDisplay:10.37,2013-08-09 12:49:00,
2013-08-09 22:54:00,58.3,41.2,29.93,NW,310,5.0,11.0,53,0.00,CLR,,0.00,WeatherDisplay:10.37,2013-08-09 12:54:00,
2013-08-09 22:59:00,58.3,41.2,29.93,NW,319,5.0,14.0,53,0.00,CLR,,0.00,WeatherDisplay:10.37,2013-08-09 12:59:00,
2013-08-09 23:04:00,58.3,41.2,29.93,NW,307,7.0,13.0,53,0.00,CLR,,0.00,WeatherDisplay:10.37,2013-08-09 13:04:00,
2013-08-09 23:09:00,58.3,41.2,29.92,NW,322,5.0,10.0,53,0.00,CLR,,0.00,WeatherDisplay:10.37,2013-08-09 13:09:00,
2013-08-09 23:14:00,58.3,41.2,29.91,NNW,332,5.0,11.0,53,0.00,CLR,,0.00,WeatherDisplay:10.37,2013-08-09 13:14:00,
2013-08-09 23:19:00,58.3,40.7,29.92,NW,314,3.0,9.0,52,0.00,CLR,,0.00,WeatherDisplay:10.37,2013-08-09 13:19:00,
2013-08-09 23:29:00,58.3,40.2,29.92,NW,312,3.0,10.0,51,0.00,CLR,,0.00,WeatherDisplay:10.37,2013-08-09 13:29:00,
2013-08-09 23:34:00,58.5,40.4,29.93,NW,314,7.0,15.0,51,0.00,CLR,,0.00,WeatherDisplay:10.37,2013-08-09 13:34:00,
2013-08-09 23:39:00,58.5,40.4,29.93,WNW,293,5.0,13.0,51,0.00,CLR,,0.00,WeatherDisplay:10.37,2013-08-09 13:39:00,
2013-08-09 23:44:00,58.5,40.4,29.94,WNW,295,3.0,8.0,51,0.00,CLR,,0.00,WeatherDisplay:10.37,2013-08-09 13:44:00,
2013-08-09 23:49:00,58.5,39.9,29.93,WNW,302,5.0,12.0,50,0.00,CLR,,0.00,WeatherDisplay:10.37,2013-08-09 13:49:00,
2013-08-09 23:54:00,58.5,39.9,29.93,NW,305,5.0,13.0,50,0.00,CLR,,0.00,WeatherDisplay:10.37,2013-08-09 13:54:00,
2013-08-09 23:59:00,58.3,39.7,29.93,WNW,295,7.0,12.0,50,0.00,CLR,,0.00,WeatherDisplay:10.37,2013-08-09 13:59:00,